Regional Weather Roundup
Issued by NWS Goodland, KS

Home | Current Version | Previous Version | Text Only | Print | Product List | Glossary On
Versions: 1 2 3 4 5 6 7 8 9 10 11 12 13 14 15 16 17 18 19 20 21 22 23 24 25 26 27 28 29 30 31 32 33 34 35 36 37 38 39 40 41 42 43 44 45 46 47 48 49 50
000
ASUS43 KGLD 180208
RWRGLD

GOODLAND FORECAST AREA HOURLY WEATHER ROUNDUP
NATIONAL WEATHER SERVICE GOODLAND KS
800 PM MDT WED SEP 17 2014

...OFFICIAL OBSERVATIONS...

CITY           SKY/WX    TMP DP  RH WIND       PRES   REMARKS
GOODLAND KS    PTCLDY    66  56  70 S9        29.94R
HILL CITY KS   MOCLDY    74  66  76 E9        29.89R
IMPERIAL NEB   CLEAR     73  59  61 E12       29.93R
MCCOOK NEB     PTCLDY    70  61  73 E8        29.92R
AKRON CO       PTCLDY    66  43  43 SW3       30.00R
BURLINGTON CO  MOCLDY    73  48  41 CALM      29.98R
LIMON CO       PTCLDY    62  41  46 N10       30.05R
$$

...UNOFFICIAL OBSERVATIONS...

CITY           SKY/WX    TMP DP  RH WIND       PRES   REMARKS
COLBY KS       CLEAR     73  64  73 E9        29.92R
GOVE KS          N/A     77  32  19 MISG        N/A
NORTON KS      CLEAR     72  61  68 E9        29.90R
SHARON SPRINGS   N/A     71  51  48 SE7         N/A
WAKEENEY KS      N/A     74  63  68 MISG        N/A
TRENTON NEB      N/A     72  32  23 E12         N/A
YUMA CO          N/A     72  40  31 CALM        N/A
$$


USA.gov is the U.S. government's official web portal to all federal, state and local government web resources and services.